| time (UTC) | temp F | wind direction | speed MPH | gust MPH | rain 1hr in | rain 24hr in | rain mn in | humidity % | barometer mb |
| 20260507012545 | 75 | 321 | 1.0 | 7.0 | 0.00 | 0.00 | 0.00 | 73 | 1016.2 |
| 20260507012044 | 75 | 310 | 2.0 | 7.0 | 0.00 | 0.00 | 0.00 | 75 | 1016.2 |
| 20260507011602 | 74 | 349 | 1.0 | 7.0 | 0.00 | 0.00 | 0.00 | 78 | 1016.3 |
| 20260507011044 | 74 | 222 | 2.0 | 10.0 | 0.00 | 0.00 | 0.00 | 78 | 1016.4 |
| 20260507010543 | 75 | 203 | 1.0 | 10.0 | 0.00 | 0.00 | 0.00 | 77 | 1016.3 |
| 20260507010055 | 74 | 248 | 2.0 | 10.0 | 0.00 | 0.00 | 0.00 | 78 | 1016.6 |
| 20260507005545 | 75 | 314 | 1.0 | 9.0 | 0.00 | 0.00 | 0.00 | 76 | 1016.6 |
| 20260507005044 | 74 | 0 | 1.0 | 6.0 | 0.00 | 0.00 | 0.00 | 82 | 1016.4 |
| 20260507004556 | 73 | 0 | 0.0 | 6.0 | 0.00 | 0.00 | 0.00 | 82 | 1016.5 |
| 20260507004042 | 73 | 0 | 1.0 | 6.0 | 0.00 | 0.00 | 0.00 | 82 | 1016.6 |
| 20260507003547 | 72 | 334 | 0.0 | 4.0 | 0.00 | 0.00 | 0.00 | 85 | 1016.7 |
| 20260507003056 | 72 | 235 | 0.0 | 4.0 | 0.00 | 0.00 | 0.00 | 85 | 1016.7 |
| 20260507002542 | 71 | 257 | 1.0 | 6.0 | 0.00 | 0.00 | 0.00 | 86 | 1016.9 |
| 20260507002044 | 71 | 326 | 0.0 | 6.0 | 0.00 | 0.00 | 0.00 | 87 | 1016.8 |
| 20260507001613 | 71 | 0 | 1.0 | 5.0 | 0.00 | 0.00 | 0.00 | 87 | 1017.0 |
| 20260507001043 | 71 | 347 | 1.0 | 3.0 | 0.00 | 0.00 | 0.00 | 88 | 1017.1 |
| 20260507000546 | 70 | 339 | 0.0 | 3.0 | 0.00 | 0.00 | 0.00 | 89 | 1016.9 |
| 20260507000058 | 70 | 341 | 1.0 | 4.0 | 0.00 | 0.00 | 0.00 | 88 | 1017.2 |
| 20260506235545 | 70 | 204 | 0.0 | 4.0 | 0.00 | 0.00 | 0.00 | 89 | 1017.2 |
| 20260506235042 | 70 | 311 | 1.0 | 4.0 | 0.00 | 0.00 | 0.00 | 89 | 1017.4 |
| 20260506234558 | 70 | 276 | 0.0 | 4.0 | 0.00 | 0.00 | 0.00 | 90 | 1017.4 |
| 20260506234044 | 70 | 51 | 1.0 | 4.0 | 0.00 | 0.00 | 0.00 | 89 | 1017.6 |
| 20260506233543 | 70 | 326 | 0.0 | 2.0 | 0.00 | 0.00 | 0.00 | 91 | 1017.4 |
| 20260506233049 | 69 | 252 | 0.0 | 2.0 | 0.00 | 0.00 | 0.00 | 93 | 1017.7 |
| 20260506232542 | 69 | 0 | 0.0 | 2.0 | 0.00 | 0.00 | 0.00 | 94 | 1017.5 |
| 20260506232044 | 68 | 323 | 0.0 | 3.0 | 0.00 | 0.00 | 0.00 | 94 | 1017.7 |
| 20260506231550 | 68 | 0 | 0.0 | 3.0 | 0.00 | 0.00 | 0.00 | 95 | 1017.7 |
| 20260506231040 | 68 | 0 | 0.0 | 1.0 | 0.00 | 0.00 | 0.00 | 96 | 1017.8 |
| 20260506230544 | 68 | 0 | 0.0 | 1.0 | 0.00 | 0.00 | 0.00 | 97 | 1017.7 |
| 20260506230059 | 68 | 337 | 0.0 | 2.0 | 0.00 | 0.00 | 0.00 | 97 | 1017.6 |
| 20260506225548 | 67 | 338 | 0.0 | 2.0 | 0.00 | 0.00 | 0.00 | 98 | 1017.6 |
| 20260506225044 | 67 | 0 | 0.0 | 2.0 | 0.00 | 0.00 | 0.00 | 98 | 1017.7 |
| 20260506224552 | 66 | 261 | 0.0 | 4.0 | 0.00 | 0.00 | 0.00 | 98 | 1017.8 |
| 20260506224043 | 66 | 10 | 0.0 | 7.0 | 0.00 | 0.00 | 0.00 | 98 | 1017.8 |
| 20260506223543 | 66 | 303 | 0.0 | 7.0 | 0.00 | 0.00 | 0.00 | 98 | 1017.7 |
| 20260506223049 | 65 | 313 | 1.0 | 7.0 | 0.00 | 0.00 | 0.00 | 98 | 1017.6 |
| 20260506222544 | 65 | 263 | 2.0 | 5.0 | 0.00 | 0.00 | 0.00 | 98 | 1017.8 |
| 20260506222048 | 65 | 255 | 0.0 | 3.0 | 0.00 | 0.00 | 0.00 | 98 | 1017.6 |
| 20260506221551 | 65 | 20 | 0.0 | 3.0 | 0.00 | 0.00 | 0.00 | 98 | 1017.6 |
| 20260506221041 | 65 | 0 | 0.0 | 0.0 | 0.00 | 0.00 | 0.00 | 98 | 1017.5 |
| 20260506220544 | 65 | 0 | 0.0 | 0.0 | 0.00 | 0.00 | 0.00 | 98 | 1017.5 |
| 20260506215544 | 65 | 0 | 0.0 | 0.0 | 0.00 | 0.00 | 0.00 | 98 | 1017.5 |
| 20260506215046 | 64 | 0 | 0.0 | 0.0 | 0.00 | 0.00 | 0.00 | 98 | 1017.5 |
| 20260506214552 | 64 | 0 | 0.0 | 0.0 | 0.00 | 0.00 | 0.00 | 98 | 1017.4 |
| 20260506214044 | 64 | 0 | 0.0 | 0.0 | 0.00 | 0.00 | 0.00 | 98 | 1017.3 |
| 20260506213543 | 64 | 0 | 0.0 | 0.0 | 0.00 | 0.00 | 0.00 | 98 | 1017.3 |
| 20260506213100 | 64 | 0 | 0.0 | 0.0 | 0.00 | 0.00 | 0.00 | 98 | 1017.2 |
| 20260506212544 | 63 | 0 | 0.0 | 0.0 | 0.00 | 0.00 | 0.00 | 98 | 1017.1 |
| 20260506212045 | 63 | 0 | 0.0 | 0.0 | 0.00 | 0.00 | 0.00 | 98 | 1017.2 |
| 20260506211557 | 63 | 0 | 0.0 | 0.0 | 0.00 | 0.00 | 0.00 | 98 | 1017.2 |
| 20260506211044 | 63 | 0 | 0.0 | 0.0 | 0.00 | 0.00 | 0.00 | 98 | 1017.1 |
| 20260506210544 | 63 | 0 | 0.0 | 0.0 | 0.00 | 0.00 | 0.00 | 98 | 1017.0 |
| 20260506210117 | 63 | 0 | 0.0 | 0.0 | 0.00 | 0.00 | 0.00 | 98 | 1016.9 |
| 20260506205544 | 62 | 0 | 0.0 | 0.0 | 0.00 | 0.00 | 0.00 | 98 | 1016.9 |
| 20260506205045 | 62 | 0 | 0.0 | 0.0 | 0.00 | 0.00 | 0.00 | 98 | 1017.0 |
| 20260506204555 | 62 | 0 | 0.0 | 0.0 | 0.00 | 0.00 | 0.00 | 98 | 1017.0 |
| 20260506204043 | 62 | 0 | 0.0 | 0.0 | 0.00 | 0.00 | 0.00 | 98 | 1016.9 |
| 20260506203544 | 62 | 0 | 0.0 | 0.0 | 0.00 | 0.00 | 0.00 | 98 | 1016.8 |
| 20260506203139 | 61 | 0 | 0.0 | 0.0 | 0.00 | 0.00 | 0.00 | 98 | 1016.8 |
| 20260506202544 | 61 | 0 | 0.0 | 0.0 | 0.00 | 0.00 | 0.00 | 98 | 1016.9 |
| 20260506202044 | 61 | 0 | 0.0 | 0.0 | 0.00 | 0.00 | 0.00 | 98 | 1016.9 |
| 20260506201552 | 61 | 0 | 0.0 | 0.0 | 0.00 | 0.00 | 0.00 | 98 | 1016.8 |
| 20260506201042 | 61 | 0 | 0.0 | 0.0 | 0.00 | 0.00 | 0.00 | 98 | 1017.0 |
| 20260506200543 | 61 | 0 | 0.0 | 0.0 | 0.00 | 0.00 | 0.00 | 98 | 1016.9 |
| 20260506200059 | 61 | 0 | 0.0 | 0.0 | 0.00 | 0.00 | 0.00 | 98 | 1016.8 |
| 20260506195541 | 61 | 0 | 0.0 | 0.0 | 0.00 | 0.00 | 0.00 | 98 | 1016.8 |
| 20260506195043 | 61 | 0 | 0.0 | 0.0 | 0.00 | 0.00 | 0.00 | 98 | 1016.7 |
| 20260506194549 | 61 | 0 | 0.0 | 0.0 | 0.00 | 0.00 | 0.00 | 98 | 1016.7 |
| 20260506194044 | 61 | 0 | 0.0 | 0.0 | 0.00 | 0.00 | 0.00 | 98 | 1016.6 |
| 20260506193545 | 61 | 0 | 0.0 | 0.0 | 0.00 | 0.00 | 0.00 | 98 | 1016.5 |
| 20260506193052 | 61 | 0 | 0.0 | 0.0 | 0.00 | 0.00 | 0.00 | 98 | 1016.4 |
| 20260506192545 | 61 | 0 | 0.0 | 0.0 | 0.00 | 0.00 | 0.00 | 98 | 1016.4 |
| 20260506192044 | 61 | 0 | 0.0 | 0.0 | 0.00 | 0.00 | 0.00 | 97 | 1016.3 |
| 20260506191559 | 61 | 0 | 0.0 | 0.0 | 0.00 | 0.00 | 0.00 | 97 | 1016.2 |
| 20260506191044 | 61 | 0 | 0.0 | 0.0 | 0.00 | 0.00 | 0.00 | 97 | 1016.2 |
| 20260506190543 | 61 | 0 | 0.0 | 0.0 | 0.00 | 0.00 | 0.00 | 97 | 1016.3 |
| 20260506190056 | 61 | 0 | 0.0 | 0.0 | 0.00 | 0.00 | 0.00 | 97 | 1016.2 |
| 20260506185543 | 61 | 0 | 0.0 | 0.0 | 0.00 | 0.00 | 0.00 | 97 | 1016.2 |
| 20260506185043 | 62 | 0 | 0.0 | 0.0 | 0.00 | 0.00 | 0.00 | 97 | 1016.1 |
| 20260506184559 | 62 | 0 | 0.0 | 0.0 | 0.00 | 0.00 | 0.00 | 98 | 1016.1 |
| 20260506184045 | 62 | 0 | 0.0 | 0.0 | 0.00 | 0.00 | 0.00 | 98 | 1016.1 |
| 20260506183544 | 62 | 0 | 0.0 | 0.0 | 0.00 | 0.00 | 0.00 | 97 | 1016.2 |
| 20260506183101 | 62 | 0 | 0.0 | 0.0 | 0.00 | 0.00 | 0.00 | 97 | 1016.4 |
| 20260506182541 | 62 | 0 | 0.0 | 0.0 | 0.00 | 0.00 | 0.00 | 98 | 1016.4 |
| 20260506182044 | 61 | 0 | 0.0 | 0.0 | 0.00 | 0.00 | 0.00 | 97 | 1016.5 |
| 20260506181548 | 61 | 0 | 0.0 | 0.0 | 0.00 | 0.00 | 0.00 | 97 | 1016.5 |
| 20260506181044 | 61 | 0 | 0.0 | 0.0 | 0.00 | 0.00 | 0.00 | 97 | 1016.4 |
| 20260506180544 | 62 | 0 | 0.0 | 0.0 | 0.00 | 0.00 | 0.00 | 97 | 1016.4 |
| 20260506180054 | 62 | 0 | 0.0 | 0.0 | 0.00 | 0.00 | 0.00 | 97 | 1016.4 |
| 20260506175543 | 62 | 0 | 0.0 | 0.0 | 0.00 | 0.00 | 0.00 | 97 | 1016.6 |
| 20260506175048 | 62 | 0 | 0.0 | 0.0 | 0.00 | 0.00 | 0.00 | 97 | 1016.4 |
| 20260506174605 | 62 | 0 | 0.0 | 0.0 | 0.00 | 0.00 | 0.00 | 97 | 1016.3 |
| 20260506174047 | 62 | 0 | 0.0 | 0.0 | 0.00 | 0.00 | 0.00 | 97 | 1016.4 |
| 20260506173542 | 62 | 0 | 0.0 | 0.0 | 0.00 | 0.00 | 0.00 | 97 | 1016.4 |
| 20260506173057 | 62 | 0 | 0.0 | 0.0 | 0.00 | 0.00 | 0.00 | 97 | 1016.5 |
| 20260506172543 | 63 | 0 | 0.0 | 0.0 | 0.00 | 0.00 | 0.00 | 97 | 1016.4 |
| 20260506172044 | 63 | 0 | 0.0 | 0.0 | 0.00 | 0.00 | 0.00 | 98 | 1016.4 |
| 20260506171557 | 62 | 0 | 0.0 | 0.0 | 0.00 | 0.00 | 0.00 | 97 | 1016.5 |
| 20260506171044 | 62 | 0 | 0.0 | 0.0 | 0.00 | 0.00 | 0.00 | 97 | 1016.5 |
| 20260506170542 | 63 | 0 | 0.0 | 0.0 | 0.00 | 0.00 | 0.00 | 97 | 1016.7 |
| 20260506170052 | 63 | 0 | 0.0 | 0.0 | 0.00 | 0.00 | 0.00 | 97 | 1016.9 |
| 20260506165545 | 63 | 0 | 0.0 | 0.0 | 0.00 | 0.03 | 0.00 | 97 | 1016.7 |
| 20260506165045 | 63 | 0 | 0.0 | 0.0 | 0.00 | 0.03 | 0.00 | 97 | 1016.8 |
| 20260506164557 | 63 | 0 | 0.0 | 0.0 | 0.00 | 0.03 | 0.00 | 97 | 1016.8 |
| 20260506164042 | 63 | 0 | 0.0 | 0.0 | 0.00 | 0.03 | 0.00 | 97 | 1017.0 |
| 20260506163541 | 63 | 0 | 0.0 | 0.0 | 0.00 | 0.03 | 0.00 | 97 | 1016.8 |
| 20260506163104 | 63 | 0 | 0.0 | 0.0 | 0.00 | 0.03 | 0.00 | 97 | 1017.0 |
| 20260506162543 | 63 | 0 | 0.0 | 0.0 | 0.00 | 0.03 | 0.00 | 97 | 1016.9 |
| 20260506162044 | 63 | 0 | 0.0 | 0.0 | 0.00 | 0.03 | 0.00 | 97 | 1017.0 |
| 20260506161552 | 63 | 0 | 0.0 | 0.0 | 0.00 | 0.03 | 0.00 | 97 | 1016.8 |
| 20260506161044 | 62 | 0 | 0.0 | 0.0 | 0.00 | 0.03 | 0.00 | 97 | 1016.8 |
| 20260506160543 | 62 | 0 | 0.0 | 0.0 | 0.00 | 0.03 | 0.00 | 97 | 1016.8 |
| 20260506160054 | 62 | 0 | 0.0 | 0.0 | 0.00 | 0.03 | 0.00 | 97 | 1016.9 |
| 20260506155543 | 62 | 0 | 0.0 | 0.0 | 0.00 | 0.15 | 0.00 | 97 | 1017.0 |
| 20260506155043 | 63 | 0 | 0.0 | 0.0 | 0.00 | 0.15 | 0.00 | 97 | 1017.0 |
| 20260506154558 | 63 | 0 | 0.0 | 0.0 | 0.00 | 0.15 | 0.00 | 97 | 1017.1 |
| 20260506154048 | 63 | 0 | 0.0 | 0.0 | 0.00 | 0.15 | 0.00 | 97 | 1017.0 |
| 20260506153544 | 63 | 0 | 0.0 | 0.0 | 0.00 | 0.15 | 0.00 | 97 | 1016.9 |
| 20260506153122 | 62 | 0 | 0.0 | 0.0 | 0.00 | 0.15 | 0.00 | 97 | 1016.8 |
| 20260506152545 | 62 | 0 | 0.0 | 0.0 | 0.00 | 0.15 | 0.00 | 97 | 1017.0 |
| 20260506152043 | 62 | 0 | 0.0 | 0.0 | 0.00 | 0.15 | 0.00 | 97 | 1017.1 |
| 20260506151551 | 62 | 0 | 0.0 | 0.0 | 0.00 | 0.15 | 0.00 | 97 | 1017.1 |
| 20260506151041 | 62 | 0 | 0.0 | 0.0 | 0.00 | 0.15 | 0.00 | 97 | 1017.1 |
| 20260506150541 | 62 | 0 | 0.0 | 0.0 | 0.00 | 0.15 | 0.00 | 97 | 1017.1 |
| 20260506150055 | 62 | 0 | 0.0 | 0.0 | 0.00 | 0.15 | 0.00 | 97 | 1017.2 |
| 20260506145546 | 62 | 0 | 0.0 | 0.0 | 0.00 | 0.15 | 0.00 | 97 | 1017.2 |
| 20260506145041 | 62 | 0 | 0.0 | 0.0 | 0.00 | 0.15 | 0.00 | 97 | 1017.2 |
| 20260506144552 | 62 | 0 | 0.0 | 0.0 | 0.00 | 0.15 | 0.00 | 97 | 1017.3 |
| 20260506144043 | 62 | 0 | 0.0 | 0.0 | 0.00 | 0.15 | 0.00 | 97 | 1017.3 |
| 20260506143542 | 62 | 0 | 0.0 | 0.0 | 0.00 | 0.15 | 0.00 | 97 | 1017.4 |
| 20260506143053 | 62 | 0 | 0.0 | 0.0 | 0.00 | 0.15 | 0.00 | 97 | 1017.5 |
| 20260506142545 | 62 | 0 | 0.0 | 0.0 | 0.00 | 0.15 | 0.00 | 96 | 1017.5 |
| 20260506142042 | 62 | 0 | 0.0 | 0.0 | 0.00 | 0.15 | 0.00 | 96 | 1017.5 |
| 20260506141554 | 63 | 0 | 0.0 | 0.0 | 0.00 | 0.15 | 0.00 | 96 | 1017.5 |
| 20260506141044 | 63 | 0 | 0.0 | 0.0 | 0.00 | 0.15 | 0.00 | 97 | 1017.5 |
| 20260506140547 | 63 | 0 | 0.0 | 0.0 | 0.00 | 0.15 | 0.00 | 97 | 1017.7 |
| 20260506140050 | 63 | 0 | 0.0 | 0.0 | 0.00 | 0.15 | 0.00 | 96 | 1017.7 |
| 20260506135541 | 63 | 0 | 0.0 | 0.0 | 0.00 | 0.15 | 0.15 | 96 | 1017.7 |
| 20260506135041 | 63 | 0 | 0.0 | 0.0 | 0.00 | 0.15 | 0.15 | 96 | 1017.7 |
| 20260506134600 | 63 | 0 | 0.0 | 0.0 | 0.00 | 0.15 | 0.15 | 96 | 1017.8 |
| 20260506134045 | 63 | 0 | 0.0 | 0.0 | 0.00 | 0.15 | 0.15 | 96 | 1017.7 |
| 20260506133542 | 63 | 0 | 0.0 | 0.0 | 0.00 | 0.15 | 0.15 | 96 | 1017.7 |
| 20260506133053 | 63 | 0 | 0.0 | 0.0 | 0.00 | 0.15 | 0.15 | 96 | 1017.7 |
| 20260506132545 | 63 | 0 | 0.0 | 0.0 | 0.00 | 0.15 | 0.15 | 96 | 1017.8 |
| 20260506132041 | 63 | 0 | 0.0 | 0.0 | 0.00 | 0.15 | 0.15 | 96 | 1017.9 |
| 20260506131601 | 63 | 0 | 0.0 | 0.0 | 0.00 | 0.15 | 0.15 | 96 | 1017.8 |
| 20260506131041 | 63 | 0 | 0.0 | 0.0 | 0.00 | 0.15 | 0.15 | 96 | 1017.9 |
| 20260506130541 | 63 | 0 | 0.0 | 0.0 | 0.00 | 0.15 | 0.15 | 96 | 1018.0 |
| 20260506130056 | 63 | 0 | 0.0 | 0.0 | 0.00 | 0.15 | 0.15 | 96 | 1018.0 |
| 20260506125543 | 63 | 0 | 0.0 | 0.0 | 0.00 | 0.15 | 0.15 | 96 | 1018.0 |
| 20260506125041 | 63 | 0 | 0.0 | 0.0 | 0.00 | 0.15 | 0.15 | 95 | 1018.0 |
| 20260506124555 | 63 | 0 | 0.0 | 0.0 | 0.00 | 0.15 | 0.15 | 96 | 1018.1 |
| 20260506124041 | 63 | 0 | 0.0 | 0.0 | 0.00 | 0.15 | 0.15 | 95 | 1018.2 |
| 20260506123542 | 63 | 0 | 0.0 | 0.0 | 0.00 | 0.15 | 0.15 | 95 | 1018.1 |
| 20260506123107 | 63 | 0 | 0.0 | 0.0 | 0.00 | 0.15 | 0.15 | 95 | 1018.1 |
| 20260506122542 | 64 | 0 | 0.0 | 0.0 | 0.00 | 0.15 | 0.15 | 95 | 1018.2 |
| 20260506122041 | 64 | 0 | 0.0 | 0.0 | 0.00 | 0.15 | 0.15 | 95 | 1018.2 |
| 20260506121557 | 64 | 0 | 0.0 | 0.0 | 0.00 | 0.15 | 0.15 | 95 | 1018.3 |
| 20260506121041 | 64 | 0 | 0.0 | 0.0 | 0.00 | 0.15 | 0.15 | 94 | 1018.4 |
| 20260506120541 | 64 | 0 | 0.0 | 0.0 | 0.00 | 0.15 | 0.15 | 94 | 1018.3 |
| 20260506120053 | 64 | 0 | 0.0 | 0.0 | 0.00 | 0.15 | 0.15 | 93 | 1018.3 |
| 20260506115543 | 65 | 0 | 0.0 | 0.0 | 0.00 | 0.15 | 0.15 | 93 | 1018.3 |
| 20260506115044 | 65 | 0 | 0.0 | 0.0 | 0.00 | 0.15 | 0.15 | 92 | 1018.3 |
| 20260506114552 | 65 | 0 | 0.0 | 1.0 | 0.00 | 0.15 | 0.15 | 92 | 1018.4 |
| 20260506114043 | 66 | 0 | 0.0 | 2.0 | 0.00 | 0.15 | 0.15 | 91 | 1018.4 |
| 20260506113545 | 66 | 0 | 0.0 | 2.0 | 0.00 | 0.15 | 0.15 | 91 | 1018.3 |
| 20260506113056 | 66 | 147 | 0.0 | 3.0 | 0.00 | 0.15 | 0.15 | 91 | 1018.3 |
| 20260506112545 | 66 | 0 | 0.0 | 3.0 | 0.00 | 0.15 | 0.15 | 92 | 1018.4 |
| 20260506112044 | 66 | 0 | 0.0 | 2.0 | 0.00 | 0.15 | 0.15 | 91 | 1018.5 |
| 20260506111548 | 66 | 0 | 0.0 | 2.0 | 0.00 | 0.15 | 0.15 | 91 | 1018.4 |
| 20260506111043 | 67 | 0 | 0.0 | 1.0 | 0.00 | 0.15 | 0.15 | 90 | 1018.5 |
| 20260506110544 | 67 | 0 | 0.0 | 2.0 | 0.00 | 0.15 | 0.15 | 89 | 1018.4 |
| 20260506105543 | 68 | 112 | 0.0 | 4.0 | 0.00 | 0.15 | 0.15 | 89 | 1018.3 |
| 20260506105044 | 68 | 108 | 1.0 | 4.0 | 0.00 | 0.15 | 0.15 | 90 | 1018.3 |
| 20260506104557 | 68 | 153 | 0.0 | 4.0 | 0.00 | 0.15 | 0.15 | 90 | 1018.4 |
| 20260506104045 | 68 | 110 | 1.0 | 4.0 | 0.00 | 0.15 | 0.15 | 90 | 1018.5 |
| 20260506103544 | 67 | 105 | 1.0 | 4.0 | 0.00 | 0.15 | 0.15 | 90 | 1018.4 |
| 20260506103056 | 67 | 100 | 1.0 | 4.0 | 0.00 | 0.15 | 0.15 | 91 | 1018.5 |
| 20260506102546 | 67 | 87 | 0.0 | 3.0 | 0.00 | 0.15 | 0.15 | 91 | 1018.5 |
| 20260506102048 | 67 | 98 | 0.0 | 3.0 | 0.00 | 0.15 | 0.15 | 91 | 1018.6 |
| 20260506101609 | 67 | 0 | 0.0 | 2.0 | 0.00 | 0.15 | 0.15 | 90 | 1018.5 |
| 20260506101044 | 67 | 0 | 0.0 | 2.0 | 0.00 | 0.15 | 0.15 | 90 | 1018.5 |
| 20260506100546 | 67 | 0 | 0.0 | 2.0 | 0.00 | 0.15 | 0.15 | 90 | 1018.4 |
| 20260506100050 | 67 | 110 | 0.0 | 2.0 | 0.00 | 0.15 | 0.15 | 90 | 1018.5 |
| 20260506095545 | 67 | 0 | 0.0 | 1.0 | 0.00 | 0.15 | 0.15 | 90 | 1018.5 |
| 20260506095044 | 68 | 0 | 0.0 | 1.0 | 0.00 | 0.15 | 0.15 | 90 | 1018.4 |
| 20260506094558 | 68 | 0 | 0.0 | 1.0 | 0.00 | 0.15 | 0.15 | 90 | 1018.5 |
| 20260506094043 | 68 | 0 | 0.0 | 3.0 | 0.00 | 0.15 | 0.15 | 90 | 1018.4 |
| 20260506093547 | 68 | 118 | 0.0 | 3.0 | 0.00 | 0.15 | 0.15 | 90 | 1018.4 |
| 20260506093058 | 68 | 0 | 0.0 | 3.0 | 0.00 | 0.15 | 0.15 | 90 | 1018.5 |
| 20260506092543 | 68 | 0 | 0.0 | 2.0 | 0.00 | 0.15 | 0.15 | 91 | 1018.5 |
| 20260506092046 | 67 | 0 | 0.0 | 1.0 | 0.00 | 0.15 | 0.15 | 91 | 1018.5 |
| 20260506091549 | 67 | 0 | 0.0 | 2.0 | 0.00 | 0.15 | 0.15 | 91 | 1018.5 |
| 20260506091044 | 67 | 23 | 0.0 | 2.0 | 0.00 | 0.15 | 0.15 | 91 | 1018.5 |
| 20260506090544 | 67 | 98 | 0.0 | 1.0 | 0.00 | 0.15 | 0.15 | 91 | 1018.4 |
| 20260506090100 | 67 | 0 | 0.0 | 0.0 | 0.00 | 0.15 | 0.15 | 90 | 1018.3 |
| 20260506085543 | 68 | 0 | 0.0 | 1.0 | 0.00 | 0.15 | 0.15 | 90 | 1018.3 |
| 20260506085043 | 68 | 0 | 0.0 | 1.0 | 0.00 | 0.15 | 0.15 | 89 | 1018.2 |
| 20260506084616 | 68 | 0 | 0.0 | 1.0 | 0.00 | 0.15 | 0.15 | 89 | 1018.2 |
| 20260506084043 | 68 | 0 | 0.0 | 1.0 | 0.00 | 0.15 | 0.15 | 89 | 1018.0 |
| 20260506083542 | 69 | 0 | 0.0 | 2.0 | 0.00 | 0.15 | 0.15 | 88 | 1018.0 |
| 20260506083049 | 69 | 0 | 0.0 | 2.0 | 0.00 | 0.15 | 0.15 | 88 | 1017.8 |
| 20260506082543 | 69 | 76 | 0.0 | 2.0 | 0.00 | 0.15 | 0.15 | 88 | 1017.8 |
| 20260506082044 | 69 | 0 | 0.0 | 2.0 | 0.00 | 0.15 | 0.15 | 88 | 1017.6 |
| 20260506081552 | 69 | 0 | 0.0 | 2.0 | 0.00 | 0.15 | 0.15 | 88 | 1017.5 |
| 20260506081047 | 69 | 0 | 0.0 | 2.0 | 0.00 | 0.15 | 0.15 | 88 | 1017.5 |
| 20260506080544 | 69 | 82 | 0.0 | 2.0 | 0.00 | 0.15 | 0.15 | 88 | 1017.5 |
| 20260506073050 | 70 | 0 | 0.0 | 1.0 | 0.00 | 0.15 | 0.15 | 86 | 1017.1 |
| 20260506072543 | 70 | 0 | 0.0 | 1.0 | 0.00 | 0.15 | 0.15 | 86 | 1017.2 |
| 20260506072046 | 70 | 0 | 0.0 | 2.0 | 0.00 | 0.15 | 0.15 | 86 | 1017.1 |
| 20260506071552 | 70 | 0 | 0.0 | 2.0 | 0.00 | 0.15 | 0.15 | 85 | 1017.0 |
| 20260506071044 | 71 | 0 | 0.0 | 2.0 | 0.00 | 0.15 | 0.15 | 85 | 1017.0 |
| 20260506070543 | 71 | 109 | 0.0 | 4.0 | 0.00 | 0.15 | 0.15 | 84 | 1016.8 |
| 20260506062044 | 73 | 87 | 4.0 | 8.0 | 0.00 | 0.15 | 0.15 | 81 | 1016.4 |
| 20260506061552 | 73 | 122 | 3.0 | 8.0 | 0.00 | 0.15 | 0.15 | 81 | 1016.4 |
| 20260506061043 | 73 | 88 | 2.0 | 9.0 | 0.00 | 0.15 | 0.15 | 81 | 1016.4 |
| 20260506060545 | 73 | 143 | 2.0 | 9.0 | 0.00 | 0.15 | 0.15 | 82 | 1016.4 |
| 20260506051043 | 74 | 132 | 2.0 | 10.0 | 0.00 | 0.15 | 0.15 | 80 | 1016.6 |
| 20260506050542 | 74 | 116 | 2.0 | 10.0 | 0.00 | 0.15 | 0.15 | 80 | 1016.6 |
| 20260506050113 | 74 | 149 | 5.0 | 9.0 | 0.00 | 0.15 | 0.15 | 79 | 1016.6 |
| 20260506045043 | 74 | 75 | 2.0 | 8.0 | 0.00 | 0.15 | 0.15 | 78 | 1016.5 |
| 20260506044554 | 75 | 179 | 3.0 | 11.0 | 0.00 | 0.15 | 0.15 | 78 | 1016.5 |
| 20260506044043 | 75 | 163 | 4.0 | 11.0 | 0.00 | 0.15 | 0.15 | 77 | 1016.5 |
| 20260506043543 | 75 | 188 | 2.0 | 7.0 | 0.00 | 0.15 | 0.15 | 79 | 1016.4 |
| 20260506043054 | 75 | 94 | 2.0 | 7.0 | 0.00 | 0.15 | 0.15 | 80 | 1016.5 |
| 20260506042543 | 74 | 152 | 3.0 | 10.0 | 0.00 | 0.15 | 0.15 | 80 | 1016.6 |
| 20260506042046 | 75 | 138 | 2.0 | 10.0 | 0.00 | 0.15 | 0.15 | 80 | 1016.7 |
| 20260506041603 | 75 | 147 | 4.0 | 10.0 | 0.00 | 0.15 | 0.15 | 78 | 1016.7 |
| 20260506041043 | 75 | 165 | 2.0 | 8.0 | 0.00 | 0.15 | 0.15 | 80 | 1016.7 |
| 20260506040542 | 75 | 163 | 3.0 | 6.0 | 0.00 | 0.15 | 0.15 | 80 | 1016.7 |
| 20260506040057 | 75 | 100 | 2.0 | 9.0 | 0.00 | 0.15 | 0.15 | 79 | 1016.7 |
| 20260506035544 | 75 | 179 | 3.0 | 11.0 | 0.00 | 0.15 | 0.15 | 79 | 1016.8 |
| 20260506035043 | 75 | 172 | 3.0 | 12.0 | 0.00 | 0.15 | 0.15 | 79 | 1016.7 |
| 20260506034553 | 75 | 166 | 1.0 | 12.0 | 0.00 | 0.15 | 0.15 | 82 | 1016.8 |
| 20260506034043 | 74 | 153 | 5.0 | 12.0 | 0.00 | 0.15 | 0.15 | 80 | 1016.9 |
| 20260506033543 | 75 | 140 | 1.0 | 6.0 | 0.00 | 0.15 | 0.15 | 80 | 1016.9 |
| 20260506033053 | 74 | 184 | 2.0 | 12.0 | 0.00 | 0.15 | 0.15 | 80 | 1016.9 |
| 20260506032545 | 74 | 119 | 4.0 | 12.0 | 0.00 | 0.15 | 0.15 | 79 | 1016.9 |
| 20260506032043 | 75 | 187 | 4.0 | 9.0 | 0.00 | 0.15 | 0.15 | 79 | 1017.0 |
| 20260506031549 | 75 | 89 | 4.0 | 9.0 | 0.00 | 0.15 | 0.15 | 78 | 1017.0 |
| 20260506031044 | 76 | 172 | 2.0 | 6.0 | 0.00 | 0.15 | 0.15 | 77 | 1017.0 |
| 20260506030545 | 76 | 200 | 3.0 | 5.0 | 0.00 | 0.15 | 0.15 | 76 | 1017.0 |
| 20260506030048 | 76 | 205 | 1.0 | 6.0 | 0.00 | 0.15 | 0.15 | 76 | 1016.9 |
| 20260506025544 | 76 | 207 | 2.0 | 6.0 | 0.00 | 0.15 | 0.15 | 76 | 1017.0 |
| 20260506025043 | 76 | 179 | 1.0 | 5.0 | 0.00 | 0.15 | 0.15 | 76 | 1017.0 |
| 20260506024556 | 76 | 136 | 2.0 | 7.0 | 0.00 | 0.15 | 0.15 | 75 | 1017.2 |
| 20260506024044 | 76 | 119 | 3.0 | 7.0 | 0.00 | 0.15 | 0.15 | 76 | 1017.1 |
| 20260506023543 | 76 | 183 | 2.0 | 5.0 | 0.00 | 0.15 | 0.15 | 76 | 1017.2 |
| 20260506023105 | 76 | 127 | 1.0 | 7.0 | 0.00 | 0.15 | 0.15 | 77 | 1017.2 |
| 20260506022542 | 76 | 203 | 3.0 | 7.0 | 0.00 | 0.15 | 0.15 | 76 | 1017.2 |
| 20260506022046 | 76 | 150 | 2.0 | 5.0 | 0.00 | 0.15 | 0.15 | 75 | 1017.2 |
| 20260506021552 | 76 | 195 | 3.0 | 5.0 | 0.00 | 0.15 | 0.15 | 76 | 1017.4 |
| 20260506021045 | 76 | 122 | 3.0 | 8.0 | 0.00 | 0.15 | 0.15 | 77 | 1017.4 |
| 20260506020543 | 76 | 150 | 4.0 | 8.0 | 0.00 | 0.15 | 0.15 | 77 | 1017.5 |
| 20260506020054 | 76 | 0 | 1.0 | 3.0 | 0.00 | 0.15 | 0.15 | 78 | 1017.5 |
| 20260506015543 | 76 | 105 | 1.0 | 4.0 | 0.00 | 0.15 | 0.15 | 77 | 1017.6 |
| 20260506015043 | 76 | 0 | 2.0 | 4.0 | 0.00 | 0.15 | 0.15 | 77 | 1017.7 |
| 20260506014549 | 76 | 154 | 1.0 | 4.0 | 0.00 | 0.15 | 0.15 | 77 | 1017.8 |
| 20260506014046 | 76 | 0 | 1.0 | 7.0 | 0.00 | 0.15 | 0.15 | 78 | 1017.9 |
| 20260506013543 | 75 | 203 | 3.0 | 7.0 | 0.00 | 0.15 | 0.15 | 79 | 1018.0 |
| 20260506013056 | 75 | 114 | 2.0 | 6.0 | 0.00 | 0.15 | 0.15 | 77 | 1017.9 |